DW9313 Weather Reports


time (UTC)temp
F
wind
direction
speed
knots
gust
knots
rain 1hr
in
rain 24hr
in
rain mn
in
humidity
%
barometer
mb
20190624155245 70 191 6.1 10.4 0.00 0.32 0.00 68 1017.0
20190624154745 70 177 7.8 12.2 0.00 0.33 0.00 69 1016.9
20190624154244 70 250 5.2 10.4 0.00 0.33 0.00 69 1016.9
20190624153744 70 228 5.2 11.3 0.00 0.33 0.00 68 1016.9
20190624153245 71 253 6.1 11.3 0.00 0.33 0.00 68 1016.8
20190624152744 71 256 5.2 12.2 0.00 0.34 0.00 68 1016.8
20190624152244 71 231 5.2 10.4 0.00 0.34 0.00 68 1016.8
20190624151745 71 249 7.8 11.3 0.00 0.35 0.00 68 1016.7
20190624151245 70 225 5.2 10.4 0.00 0.35 0.00 68 1016.8
20190624150745 70 338 5.2 10.4 0.00 0.36 0.00 68 1016.7
20190624150244 70 211 6.1 11.3 0.00 0.36 0.00 69 1016.7
20190624145745 70 176 7.8 12.2 0.00 0.36 0.00 68 1016.7
20190624145245 71 271 7.0 12.2 0.00 0.36 0.00 70 1016.8
20190624144744 71 243 6.1 12.2 0.00 0.37 0.00 68 1016.8
20190624144245 72 168 6.1 10.4 0.00 0.37 0.00 67 1016.7
20190624143745 71 300 6.1 10.4 0.00 0.37 0.00 65 1016.6
20190624143246 71 248 5.2 10.4 0.00 0.37 0.00 67 1016.5
20190624142745 71 272 5.2 10.4 0.00 0.37 0.00 67 1016.5
20190624142245 71 269 4.3 10.4 0.00 0.38 0.00 68 1016.6
20190624141746 71 240 4.3 7.8 0.00 0.38 0.00 69 1016.5
20190624141245 71 210 5.2 10.4 0.00 0.38 0.00 69 1016.5
20190624140745 71 211 4.3 10.4 0.00 0.38 0.00 70 1016.5
20190624140246 71 237 5.2 11.3 0.00 0.39 0.00 71 1016.5
20190624135745 71 210 6.1 13.0 0.00 0.39 0.00 70 1016.5
20190624135246 72 267 5.2 10.4 0.00 0.39 0.00 68 1016.4
20190624134745 71 239 6.1 11.3 0.00 0.39 0.00 67 1016.4
20190624134246 71 218 5.2 10.4 0.00 0.40 0.00 67 1016.4
20190624133745 71 264 4.3 10.4 0.00 0.40 0.00 68 1016.3
20190624133246 71 268 5.2 10.4 0.00 0.40 0.00 69 1016.4
20190624132746 71 243 5.2 10.4 0.00 0.40 0.00 69 1016.4
20190624132245 71 204 5.2 10.4 0.00 0.41 0.00 70 1016.4
20190624131746 70 264 4.3 10.4 0.00 0.41 0.00 70 1016.4
20190624131246 70 229 5.2 11.3 0.00 0.41 0.00 71 1016.4
20190624130746 71 230 4.3 10.4 0.00 0.42 0.00 71 1016.3
20190624130246 70 190 4.3 7.8 0.00 0.42 0.00 71 1016.3
20190624125746 71 279 3.5 7.0 0.00 0.42 0.00 70 1016.3
20190624125247 71 311 4.3 7.0 0.00 0.43 0.00 68 1016.2
20190624124746 71 220 3.5 7.0 0.00 0.43 0.00 68 1016.3
20190624124246 71 272 4.3 7.0 0.00 0.43 0.00 67 1016.4
20190624123746 71 188 5.2 10.4 0.00 0.44 0.00 70 1016.3
20190624123246 71 208 5.2 10.4 0.00 0.44 0.00 70 1016.3
20190624122746 71 249 3.5 7.0 0.00 0.45 0.00 70 1016.3
20190624122246 71 268 5.2 10.4 0.00 0.45 0.00 71 1016.3
20190624121747 71 217 5.2 11.3 0.00 0.46 0.00 73 1016.3
20190624121246 70 250 4.3 7.8 0.00 0.46 0.00 74 1016.3
20190624120747 69 155 4.3 10.4 0.00 0.46 0.00 76 1016.2
20190624120246 69 243 4.3 7.0 0.00 0.47 0.00 76 1016.2
20190624115746 68 277 2.6 7.0 0.00 0.47 0.00 76 1016.2
20190624115246 69 282 2.6 7.8 0.00 0.47 0.00 75 1016.2
20190624114746 70 241 4.3 7.0 0.00 0.48 0.00 72 1016.1
20190624114247 70 258 2.6 7.0 0.00 0.48 0.00 71 1016.1
20190624113747 70 190 5.2 10.4 0.00 0.48 0.00 74 1016.1
20190624113247 70 195 3.5 7.0 0.00 0.49 0.00 74 1016.1
20190624112746 70 313 4.3 7.8 0.00 0.49 0.00 75 1016.1
20190624112247 69 172 4.3 7.8 0.00 0.50 0.00 75 1016.1
20190624111746 69 170 5.2 7.8 0.00 0.50 0.00 76 1016.1
20190624111246 69 144 4.3 10.4 0.00 0.51 0.00 76 1016.1
20190624110747 69 196 3.5 10.4 0.00 0.52 0.00 77 1016.1
20190624110246 68 180 4.3 7.0 0.00 0.52 0.00 79 1016.0
20190624105747 67 191 2.6 10.4 0.00 0.53 0.00 80 1016.0
20190624105247 67 156 6.1 11.3 0.00 0.54 0.00 79 1016.0
20190624104747 67 183 2.6 10.4 0.00 0.54 0.00 80 1016.0
20190624104246 67 215 5.2 11.3 0.00 0.55 0.00 82 1016.0
20190624103747 66 173 6.1 10.4 0.00 0.55 0.00 82 1016.0
20190624103247 66 155 5.2 10.4 0.00 0.56 0.00 82 1016.0
20190624102747 66 160 6.1 7.8 0.00 0.57 0.00 83 1016.0
20190624102247 66 177 5.2 10.4 0.00 0.58 0.00 81 1016.0
20190624101748 66 193 3.5 7.8 0.00 0.58 0.00 81 1016.1
20190624101248 66 168 2.6 7.0 0.00 0.59 0.00 82 1016.0
20190624100747 66 158 4.3 7.8 0.00 0.60 0.00 83 1016.0
20190624100247 66 204 2.6 7.0 0.00 0.60 0.00 85 1016.0
20190624095748 65 174 1.7 7.0 0.00 0.61 0.00 85 1016.0
20190624095247 65 253 1.7 6.1 0.00 0.62 0.00 86 1016.0
20190624094748 65 249 2.6 7.0 0.00 0.62 0.00 87 1016.0
20190624094247 64 194 2.6 6.1 0.00 0.63 0.00 88 1016.0
20190624093747 65 195 2.6 5.2 0.00 0.63 0.00 89 1015.9
20190624093248 64 270 0.9 4.3 0.00 0.64 0.00 89 1015.8
20190624092747 64 152 1.7 5.2 0.00 0.65 0.00 89 1015.7
20190624092247 64 157 0.9 1.7 0.00 0.66 0.00 90 1015.7
20190624091749 63 155 0.9 5.2 0.00 0.66 0.00 90 1015.7
20190624091248 63 149 0.9 4.3 0.00 0.67 0.00 90 1015.6
20190624090748 63 133 1.7 4.3 0.00 0.67 0.00 90 1015.6
20190624090248 63 122 0.9 1.7 0.00 0.68 0.00 90 1015.6
20190624085748 63 149 0.0 0.0 0.00 0.68 0.00 90 1015.5
20190624085248 63 153 0.9 1.7 0.00 0.69 0.00 90 1015.5
20190624084748 63 148 1.7 4.3 0.00 0.69 0.00 90 1015.5
20190624084248 62 146 0.0 1.7 0.00 0.70 0.00 90 1015.4
20190624083748 62 81 0.0 1.7 0.00 0.70 0.00 90 1015.4
20190624083249 62 81 0.0 1.7 0.00 0.71 0.00 90 1015.3
20190624082748 62 158 0.9 4.3 0.00 0.72 0.00 90 1015.3
20190624082248 61 97 0.9 5.2 0.00 0.73 0.00 90 1015.2
20190624081748 61 123 1.7 6.1 0.00 0.74 0.00 90 1015.2
20190624081248 61 111 4.3 7.0 0.00 0.75 0.00 90 1015.1
20190624080748 61 108 2.6 6.1 0.00 0.76 0.00 90 1015.1
20190624080248 61 122 2.6 5.2 0.00 0.77 0.00 90 1015.1
20190624075748 61 133 1.7 5.2 0.00 0.78 0.00 90 1015.0
20190624075248 61 122 1.7 5.2 0.00 0.79 0.00 90 1015.0
20190624074749 61 108 0.9 5.2 0.00 0.79 0.00 90 1015.0
20190624074248 62 119 0.9 5.2 0.00 0.80 0.00 90 1015.0
20190624073749 62 109 0.0 1.7 0.00 0.80 0.00 90 1015.0
20190624073249 62 108 0.0 0.9 0.00 0.81 0.00 90 1014.9
20190624072748 61 109 0.0 0.0 0.00 0.82 0.00 90 1014.9
20190624072249 61 109 0.0 0.0 0.00 0.82 0.00 90 1014.8
20190624071749 62 108 0.0 0.0 0.00 0.83 0.00 90 1014.7
20190624071249 61 109 0.0 0.0 0.00 0.83 0.00 90 1014.7
20190624070749 61 81 0.9 5.2 0.00 0.84 0.00 90 1014.7
20190624070249 61 112 0.9 5.2 0.00 0.85 0.00 90 1014.6
20190624065749 61 77 0.0 1.7 0.00 0.86 0.00 90 1014.5
20190624065249 61 74 0.9 1.7 0.00 0.86 0.00 90 1014.4
20190624064749 60 78 0.9 4.3 0.00 0.86 0.00 90 1014.5
20190624064249 60 73 0.9 4.3 0.00 0.86 0.00 90 1014.5
20190624063749 60 73 0.9 4.3 0.00 0.87 0.00 90 1014.4
20190624063249 59 73 1.7 4.3 0.00 0.87 0.00 90 1014.3
20190624062749 59 84 0.9 5.2 0.00 0.87 0.00 90 1014.3
20190624062249 59 82 0.9 5.2 0.00 0.88 0.00 90 1014.3
20190624061749 59 81 2.6 5.2 0.00 0.88 0.00 90 1014.2
20190624061249 59 84 0.9 1.7 0.00 0.88 0.00 90 1014.2
20190624060749 59 78 1.7 5.2 0.00 0.88 0.00 90 1014.2
20190624060249 59 71 0.9 5.2 0.00 0.88 0.00 90 1014.1
20190624055749 59 76 0.9 1.7 0.00 0.88 0.00 90 1014.1
20190624055249 59 83 0.9 5.2 0.00 0.88 0.00 90 1014.1
20190624054749 59 85 0.9 5.2 0.00 0.89 0.00 90 1014.0
20190624054249 59 82 1.7 5.2 0.00 0.89 0.00 90 1014.0
20190624053749 59 77 1.7 5.2 0.00 0.89 0.00 90 1014.0
20190624053250 59 78 0.0 5.2 0.00 0.89 0.00 90 1014.1
20190624052750 58 81 0.9 5.2 0.00 0.90 0.00 90 1014.1
20190624052250 58 81 1.7 5.2 0.00 0.90 0.00 90 1014.1
20190624051750 58 80 1.7 5.2 0.00 0.90 0.00 90 1014.1
20190624051249 58 82 2.6 5.2 0.00 0.91 0.00 90 1014.1
20190624050749 58 84 2.6 6.1 0.00 0.91 0.00 90 1014.1
20190624050249 58 77 1.7 5.2 0.00 0.91 0.00 90 1014.0
20190624045750 58 83 1.7 5.2 0.00 0.91 0.00 90 1014.0
20190624045250 58 83 0.9 4.3 0.00 0.91 0.00 90 1014.0
20190624044749 58 84 0.9 5.2 0.00 0.91 0.00 90 1014.0
20190624044250 58 83 0.9 4.3 0.00 0.92 0.00 90 1013.9
20190624043749 58 83 0.9 5.2 0.00 0.93 0.00 90 1013.8
20190624043250 58 83 0.9 5.2 0.00 0.93 0.00 90 1013.8
20190624042750 58 83 2.6 5.2 0.00 0.94 0.00 90 1013.7
20190624042250 58 84 0.9 1.7 0.00 0.94 0.00 90 1013.7
20190624041750 58 84 0.9 4.3 0.00 0.94 0.00 90 1013.6
20190624041251 58 88 1.7 4.3 0.00 0.94 0.00 90 1013.6
20190624040750 58 86 1.7 5.2 0.00 0.94 0.00 90 1013.5
20190624040250 58 88 1.7 5.2 0.00 0.94 0.00 90 1013.5
20190624035751 58 84 2.6 6.1 0.00 0.94 0.00 90 1013.5
20190624035250 58 79 1.7 5.2 0.00 0.94 0.00 90 1013.4
20190624034750 58 89 0.9 5.2 0.00 0.94 0.00 90 1013.5
20190624034250 58 86 1.7 5.2 0.00 0.94 0.00 90 1013.4
20190624033750 58 84 2.6 5.2 0.00 0.94 0.00 90 1013.5
20190624033251 58 83 2.6 6.1 0.00 0.94 0.00 90 1013.4
20190624032750 58 88 2.6 6.1 0.00 0.94 0.00 90 1013.4
20190624032250 58 81 1.7 5.2 0.00 0.94 0.00 90 1013.4
20190624031750 58 79 1.7 5.2 0.00 0.94 0.00 90 1013.3
20190624031251 58 78 1.7 5.2 0.00 0.94 0.00 90 1013.3
20190624030750 58 71 0.9 4.3 0.00 0.94 0.00 90 1013.3
20190624030250 58 84 1.7 5.2 0.00 0.95 0.00 90 1013.3
20190624025751 58 84 1.7 5.2 0.00 0.95 0.00 90 1013.3
20190624025250 58 73 2.6 6.1 0.00 0.95 0.00 90 1013.2
20190624024751 58 82 1.7 5.2 0.00 0.95 0.00 90 1013.2
20190624024250 59 73 1.7 5.2 0.00 0.95 0.00 90 1013.2
20190624023751 59 85 1.7 6.1 0.00 0.95 0.00 90 1013.2
20190624023252 59 83 2.6 6.1 0.00 0.95 0.00 90 1013.2
20190624022750 59 79 3.5 6.1 0.00 0.95 0.00 90 1013.2
20190624022251 59 78 4.3 7.0 0.00 0.95 0.00 90 1013.2
20190624021751 59 83 1.7 4.3 0.00 0.95 0.00 90 1013.2
20190624021251 59 83 1.7 5.2 0.00 0.95 0.00 90 1013.2
20190624020752 59 83 0.9 5.2 0.00 0.95 0.00 90 1013.2
20190624020253 59 78 1.7 5.2 0.00 0.95 0.00 90 1013.2
20190624015751 59 83 3.5 7.0 0.00 0.95 0.00 90 1013.2
20190624015251 59 96 1.7 5.2 0.00 0.95 0.00 90 1013.3
20190624014752 59 86 2.6 5.2 0.00 0.95 0.00 90 1013.2
20190624014252 59 82 0.9 5.2 0.00 0.95 0.00 90 1013.3
20190624013752 59 84 2.6 5.2 0.00 0.95 0.00 90 1013.3
20190624013252 59 86 1.7 5.2 0.00 0.95 0.00 90 1013.3
20190624012818 59 77 1.7 4.3 0.00 0.95 0.00 90 1013.3
20190624012255 59 81 2.6 5.2 0.00 0.95 0.00 90 1013.2
20190624011756 59 85 1.7 5.2 0.00 0.95 0.00 89 1013.3
20190624011252 59 88 1.7 5.2 0.00 0.95 0.00 89 1013.3
20190624010752 59 82 1.7 5.2 0.00 0.95 0.00 89 1013.3
20190624010252 59 75 1.7 4.3 0.00 0.95 0.00 89 1013.4
20190624005751 59 75 0.9 1.7 0.00 0.95 0.00 89 1013.3
20190624005252 59 89 0.9 4.3 0.00 0.95 0.00 89 1013.3
20190624004752 59 86 0.9 1.7 0.00 0.95 0.00 89 1013.3
20190624004252 59 93 0.0 0.9 0.00 0.95 0.00 89 1013.4
20190624003752 59 93 0.0 1.7 0.00 0.95 0.00 89 1013.4
20190624003252 59 97 1.7 5.2 0.00 0.95 0.00 89 1013.5
20190624002752 59 87 2.6 5.2 0.00 0.95 0.00 89 1013.5
20190624002252 59 84 2.6 5.2 0.00 0.95 0.00 89 1013.4
20190624001752 59 91 0.0 1.7 0.00 0.95 0.00 89 1013.3
20190624001252 59 91 0.9 4.3 0.00 0.95 0.00 89 1013.3
20190624000752 59 100 0.9 1.7 0.00 0.95 0.00 89 1013.3
20190624000252 59 118 1.7 5.2 0.00 0.95 0.00 89 1013.4
20190623235753 59 116 2.6 6.1 0.00 0.95 0.00 89 1013.4
20190623235253 59 107 0.9 5.2 0.00 0.95 0.00 89 1013.4
20190623234752 59 97 1.7 4.3 0.00 0.95 0.00 89 1013.3
20190623234252 59 115 2.6 5.2 0.00 0.95 0.00 89 1013.3
20190623233753 59 107 2.6 5.2 0.00 0.95 0.00 89 1013.4
20190623233253 59 117 2.6 5.2 0.00 0.95 0.00 89 1013.4
20190623232752 59 123 2.6 5.2 0.00 0.95 0.00 89 1013.4
20190623232253 59 95 1.7 5.2 0.00 0.95 0.00 89 1013.3
20190623231753 59 95 0.9 4.3 0.00 0.95 0.00 89 1013.3
20190623231252 59 109 1.7 5.2 0.00 0.95 0.00 89 1013.4
20190623230814 59 110 1.7 5.2 0.00 0.95 0.00 89 1013.4
20190623230252 59 118 2.6 6.1 0.00 0.95 0.00 89 1013.4
20190623225753 59 107 3.5 7.0 0.00 0.95 0.95 89 1013.4
20190623225253 59 133 2.6 6.1 0.00 0.95 0.95 89 1013.4
20190623224753 59 127 2.6 5.2 0.00 0.95 0.95 89 1013.4
20190623224253 59 115 3.5 6.1 0.00 0.95 0.95 89 1013.4
20190623223753 59 116 2.6 6.1 0.01 0.95 0.95 89 1013.4
20190623223253 59 112 4.3 7.0 0.01 0.95 0.95 89 1013.4
20190623222753 59 111 3.5 6.1 0.01 0.95 0.95 89 1013.4
20190623222253 59 90 1.7 6.1 0.01 0.95 0.95 89 1013.3
20190623221753 59 89 2.6 6.1 0.01 0.95 0.95 89 1013.3
20190623221253 59 88 2.6 6.1 0.01 0.95 0.95 89 1013.4
20190623220753 59 90 3.5 7.0 0.02 0.95 0.95 89 1013.4
20190623220253 59 84 4.3 7.0 0.02 0.95 0.95 89 1013.4
20190623215754 59 78 4.3 7.0 0.02 0.95 0.95 89 1013.3
20190623215253 59 85 3.5 7.0 0.02 0.95 0.95 89 1013.3
20190623214754 58 77 5.2 10.4 0.03 0.95 0.95 89 1013.3
20190623214253 58 82 5.2 7.0 0.05 0.95 0.95 89 1013.3
20190623213754 58 81 5.2 7.8 0.05 0.94 0.94 89 1013.3
20190623213254 58 92 4.3 10.4 0.05 0.94 0.94 89 1013.3
20190623212753 58 85 4.3 7.0 0.05 0.94 0.94 89 1013.3
20190623212254 59 95 5.2 7.8 0.05 0.94 0.94 89 1013.3
20190623211753 59 94 5.2 10.4 0.06 0.94 0.94 89 1013.2
20190623211253 59 82 5.2 10.4 0.06 0.94 0.94 89 1013.2
20190623210754 59 80 2.6 7.0 0.05 0.93 0.93 89 1013.2
20190623210254 59 91 4.3 7.8 0.05 0.93 0.93 89 1013.2
20190623205754 59 86 4.3 7.0 0.05 0.93 0.93 89 1013.2
20190623205254 59 91 4.3 7.8 0.06 0.93 0.93 89 1013.1
20190623204754 59 98 2.6 7.0 0.06 0.92 0.92 89 1013.1
20190623204254 59 93 2.6 6.1 0.04 0.90 0.90 89 1013.1
20190623203755 59 101 4.3 7.0 0.03 0.89 0.89 89 1013.0
20190623203254 59 100 4.3 7.0 0.04 0.89 0.89 89 1012.9
20190623202754 59 112 2.6 5.2 0.04 0.89 0.89 89 1012.9
20190623202254 59 104 1.7 5.2 0.04 0.89 0.89 89 1013.0
20190623201754 59 125 2.6 5.2 0.04 0.88 0.88 89 1013.0
20190623201254 58 87 2.6 7.8 0.05 0.88 0.88 89 1013.0
20190623200754 58 103 4.3 7.8 0.06 0.88 0.88 89 1012.9
20190623200255 58 122 3.5 6.1 0.07 0.88 0.88 89 1012.9
20190623195754 58 115 3.5 7.0 0.07 0.88 0.88 89 1012.9
20190623195254 58 114 2.6 7.0 0.07 0.87 0.87 89 1012.8
20190623194755 58 111 4.3 7.0 0.07 0.86 0.86 89 1012.8
20190623194254 58 88 4.3 7.0 0.07 0.86 0.86 89 1012.7
20190623193754 59 107 3.5 7.0 0.07 0.86 0.86 88 1012.7
20190623193254 58 115 4.3 7.8 0.07 0.85 0.85 88 1012.7
20190623192754 59 103 5.2 11.3 0.07 0.85 0.85 88 1012.7
20190623192255 59 110 7.8 12.2 0.07 0.85 0.85 88 1012.7
20190623191755 59 113 5.2 13.0 0.07 0.84 0.84 88 1012.7
20190623191254 59 119 8.7 12.2 0.07 0.83 0.83 88 1012.7
20190623190754 59 121 7.0 12.2 0.06 0.82 0.82 88 1012.7
20190623190254 59 115 7.8 12.2 0.05 0.81 0.81 88 1012.7
20190623185754 59 103 4.3 12.2 0.05 0.81 0.81 88 1012.7
20190623185255 59 111 6.1 12.2 0.05 0.80 0.80 88 1012.7
20190623184755 59 113 6.1 12.2 0.05 0.79 0.79 88 1012.7
20190623184255 59 108 6.1 13.9 0.05 0.79 0.79 88 1012.7
20190623183755 59 115 10.4 17.4 0.06 0.79 0.79 88 1012.7
20190623183255 59 110 8.7 13.9 0.05 0.78 0.78 88 1012.8
20190623182755 59 109 6.1 11.3 0.06 0.78 0.78 88 1012.7
20190623182255 59 93 7.0 12.2 0.08 0.78 0.78 88 1012.6
20190623181756 59 102 7.0 12.2 0.08 0.77 0.77 88 1012.6
20190623181255 59 95 7.0 11.3 0.08 0.76 0.76 88 1012.6
20190623180756 59 101 8.7 13.9 0.09 0.76 0.76 88 1012.6
20190623180255 59 89 5.2 10.4 0.09 0.76 0.76 88 1012.6
20190623175755 59 108 6.1 17.4 0.10 0.76 0.76 88 1012.6
20190623175255 59 113 7.0 13.0 0.10 0.75 0.75 88 1012.6
20190623174755 58 111 7.8 13.9 0.10 0.74 0.74 88 1012.6
20190623174255 58 110 8.7 17.4 0.11 0.74 0.74 88 1012.5
20190623173756 58 123 7.8 12.2 0.10 0.73 0.73 88 1012.5
20190623173255 58 86 6.1 11.3 0.10 0.73 0.73 88 1012.4
20190623172756 58 67 7.8 12.2 0.09 0.72 0.72 88 1012.2
20190623172255 58 79 7.8 12.2 0.07 0.70 0.70 88 1012.2
20190623171755 58 77 7.8 13.0 0.06 0.69 0.69 88 1012.2
20190623171256 58 88 7.8 13.0 0.05 0.68 0.68 88 1012.2
20190623170756 58 77 6.1 12.2 0.04 0.67 0.67 88 1012.3
20190623170257 58 89 7.8 15.6 0.04 0.67 0.67 88 1012.4
20190623165756 58 73 7.8 15.6 0.03 0.66 0.66 88 1012.4
20190623165255 58 74 7.8 12.2 0.02 0.65 0.65 88 1012.4
20190623164756 58 83 6.1 12.2 0.02 0.64 0.64 88 1012.5
20190623164256 58 81 6.1 12.2 0.01 0.63 0.63 88 1012.5
20190623163756 58 86 7.0 11.3 0.01 0.63 0.63 88 1012.5
20190623163256 58 78 4.3 12.2 0.01 0.63 0.63 88 1012.5
20190623162756 58 87 5.2 13.0 0.02 0.63 0.63 87 1012.5
20190623162256 58 66 7.0 12.2 0.02 0.63 0.63 87 1012.7
20190623161756 58 75 6.1 13.9 0.03 0.63 0.63 87 1012.7
20190623161256 59 73 6.1 13.0 0.03 0.63 0.63 87 1012.8
20190623160756 59 87 6.1 10.4 0.04 0.63 0.63 87 1012.9
20190623160256 59 85 6.1 13.9 0.04 0.63 0.63 87 1013.0
20190623155756 59 80 6.1 12.2 0.04 0.63 0.63 87 1013.0